• En España
  • Lista de países
  • Para 7 días
  • Temperatura del agua
  • Mapa Satelital
  • El tiempo en el mapa
  • Informadores
  • user-avatar
    Iniciar sesión

    Tiempo cada hora Kuleshino

    Hoy, 21 Octubre, Domingo

    Tiempo Temperatura Precipitaciones Viento Presión Humedad
    00:00 +3°C° 0 mm 0 mps 745 mmHg 94%
    01:00 +3°C° 0 mm 0 mps 745 mmHg 94%
    02:00 +2°C° 0 mm 0 mps 746 mmHg 94%
    03:00 +2°C° 0 mm 0 mps 746 mmHg 94%
    04:00 +2°C° 0 mm 0 mps 746 mmHg 94%
    05:00 +2°C° 0 mm 0 mps 746 mmHg 94%
    06:00 +2°C° 0 mm 0 mps 746 mmHg 93%
    07:00 +3°C° 0 mm 0 mps 747 mmHg 92%
    08:00 +3°C° 0 mm 0 mps 747 mmHg 89%
    09:00 +5°C° 0 mm 0 mps 747 mmHg 83%
    10:00 +6°C° 0 mm 0 mps 747 mmHg 78%
    11:00 +7°C° 0 mm 0 mps 747 mmHg 72%
    12:00 +7°C° 0 mm 0 mps 747 mmHg 70%
    13:00 +8°C° 0 mm 0 mps 747 mmHg 68%
    14:00 +8°C° 0 mm 0 mps 747 mmHg 66%
    15:00 +7°C° 0 mm 0 mps 747 mmHg 71%
    16:00 +6°C° 0 mm 0 mps 747 mmHg 76%
    17:00 +6°C° 0 mm 1 mps 747 mmHg 81%
    18:00 +5°C° 0 mm 1 mps 747 mmHg 84%
    19:00 +5°C° 0 mm 1 mps 747 mmHg 86%
    20:00 +4°C° 0 mm 1 mps 747 mmHg 89%
    21:00 +4°C° 0 mm 1 mps 747 mmHg 90%
    22:00 +4°C° 0 mm 1 mps 747 mmHg 92%
    23:00 +3°C° 0 mm 2 mps 747 mmHg 93%

    Mañana, 22 Octubre, Lunes

    Tiempo Temperatura Precipitaciones Viento Presión Humedad
    00:00 +2°C° 0 mm 2 mps 747 mmHg 93%
    01:00 +2°C° 0 mm 2 mps 747 mmHg 93%
    02:00 +2°C° 0 mm 2 mps 746 mmHg 93%
    03:00 +2°C° 0 mm 2 mps 746 mmHg 93%
    04:00 +1°C° 0 mm 3 mps 745 mmHg 93%
    05:00 +1°C° 0 mm 3 mps 745 mmHg 92%
    06:00 +1°C° 0 mm 3 mps 745 mmHg 90%
    07:00 +2°C° 0 mm 3 mps 744 mmHg 87%
    08:00 +1°C° 0 mm 4 mps 744 mmHg 85%
    09:00 +4°C° 0 mm 4 mps 744 mmHg 80%
    10:00 +5°C° 0 mm 4 mps 743 mmHg 74%
    11:00 +6°C° 0 mm 5 mps 743 mmHg 69%
    12:00 +7°C° 0 mm 5 mps 742 mmHg 68%
    13:00 +7°C° 0 mm 5 mps 741 mmHg 67%
    14:00 +8°C° 0 mm 5 mps 741 mmHg 66%
    15:00 +7°C° 0 mm 5 mps 740 mmHg 69%
    16:00 +6°C° 0 mm 5 mps 740 mmHg 72%
    17:00 +6°C° 0 mm 4 mps 739 mmHg 76%
    18:00 +6°C° 0.1 mm 4 mps 739 mmHg 77%
    19:00 +6°C° 0.1 mm 5 mps 738 mmHg 79%
    20:00 +6°C° 0.1 mm 5 mps 738 mmHg 80%
    21:00 +5°C° 0.5 mm 4 mps 737 mmHg 83%
    22:00 +5°C° 0.5 mm 4 mps 737 mmHg 85%
    23:00 +5°C° 0.5 mm 4 mps 736 mmHg 88%

    Pasado mañana, 23 Octubre, Martes

    Tiempo Temperatura Precipitaciones Viento Presión Humedad
    00:00 +5°C° 0.6 mm 3 mps 736 mmHg 89%
    01:00 +5°C° 0.6 mm 3 mps 736 mmHg 90%
    02:00 +5°C° 0.6 mm 3 mps 736 mmHg 91%
    03:00 +5°C° 0.3 mm 3 mps 735 mmHg 91%
    04:00 +4°C° 0.3 mm 3 mps 735 mmHg 90%
    05:00 +5°C° 0.3 mm 2 mps 735 mmHg 89%
    06:00 +5°C° 0 mm 2 mps 735 mmHg 88%
    07:00 +4°C° 0 mm 2 mps 735 mmHg 86%
    08:00 +4°C° 0 mm 2 mps 735 mmHg 85%
    09:00 +4°C° 0 mm 2 mps 734 mmHg 79%
    10:00 +5°C° 0 mm 2 mps 734 mmHg 73%
    11:00 +6°C° 0 mm 2 mps 734 mmHg 67%
    12:00 +6°C° 0 mm 2 mps 733 mmHg 64%
    13:00 +7°C° 0 mm 2 mps 732 mmHg 62%
    14:00 +7°C° 0 mm 2 mps 732 mmHg 59%
    15:00 +6°C° 0 mm 2 mps 731 mmHg 65%
    16:00 +5°C° 0 mm 2 mps 730 mmHg 70%
    17:00 +5°C° 0 mm 1 mps 730 mmHg 75%
    18:00 +4°C° 0 mm 2 mps 729 mmHg 77%
    19:00 +3°C° 0 mm 2 mps 728 mmHg 80%
    20:00 +3°C° 0 mm 2 mps 728 mmHg 82%
    21:00 +3°C° 0 mm 2 mps 727 mmHg 83%
    22:00 +2°C° 0 mm 2 mps 726 mmHg 84%
    23:00 +1°C° 0 mm 3 mps 725 mmHg 86%

    24 Octubre, Miércoles

    Tiempo Temperatura Precipitaciones Viento Presión Humedad
    00:00 +1°C° 0 mm 3 mps 724 mmHg 86%
    01:00 +1°C° 0 mm 3 mps 723 mmHg 86%
    02:00 -1°C° 0 mm 4 mps 722 mmHg 85%
    03:00 -1°C° 0 mm 4 mps 722 mmHg 86%
    04:00 -1°C° 0 mm 4 mps 721 mmHg 86%
    05:00 -1°C° 0 mm 4 mps 720 mmHg 86%
    06:00 0°C° 0.2 mm 4 mps 720 mmHg 85%
    07:00 0°C° 0.2 mm 5 mps 719 mmHg 84%
    08:00 0°C° 0.2 mm 5 mps 719 mmHg 84%
    09:00 +1°C° 0.3 mm 5 mps 719 mmHg 83%
    10:00 +1°C° 0.3 mm 5 mps 719 mmHg 82%
    11:00 +2°C° 0.3 mm 5 mps 719 mmHg 81%
    12:00 +3°C° 0.2 mm 4 mps 719 mmHg 82%
    13:00 +3°C° 0.2 mm 4 mps 719 mmHg 82%
    14:00 +3°C° 0.2 mm 4 mps 719 mmHg 82%
    15:00 +3°C° 0.3 mm 4 mps 719 mmHg 84%
    16:00 +3°C° 0.3 mm 4 mps 719 mmHg 86%
    17:00 +3°C° 0.3 mm 3 mps 720 mmHg 87%
    18:00 +3°C° 0.4 mm 3 mps 720 mmHg 88%
    19:00 +3°C° 0.4 mm 3 mps 720 mmHg 88%
    20:00 +3°C° 0.4 mm 3 mps 720 mmHg 89%
    21:00 +3°C° 0.4 mm 3 mps 720 mmHg 89%
    22:00 +3°C° 0.4 mm 3 mps 719 mmHg 89%
    23:00 +3°C° 0.4 mm 3 mps 719 mmHg 90%

    25 Octubre, Jueves

    Tiempo Temperatura Precipitaciones Viento Presión Humedad
    00:00 +3°C° 0.9 mm 3 mps 719 mmHg 91%
    01:00 +3°C° 0.9 mm 3 mps 719 mmHg 91%
    02:00 +3°C° 0.9 mm 3 mps 719 mmHg 92%
    03:00 +3°C° 1.2 mm 3 mps 719 mmHg 93%
    04:00 +3°C° 1.2 mm 3 mps 718 mmHg 93%
    05:00 +4°C° 1.2 mm 2 mps 718 mmHg 94%
    06:00 +4°C° 0.3 mm 2 mps 718 mmHg 94%
    07:00 +4°C° 0.3 mm 2 mps 718 mmHg 94%
    08:00 +4°C° 0.3 mm 2 mps 718 mmHg 94%
    09:00 +5°C° 0.2 mm 2 mps 718 mmHg 91%
    10:00 +5°C° 0.2 mm 2 mps 718 mmHg 89%
    11:00 +5°C° 0.2 mm 2 mps 718 mmHg 86%
    12:00 +5°C° 0.3 mm 2 mps 718 mmHg 86%
    13:00 +5°C° 0.3 mm 2 mps 718 mmHg 87%
    14:00 +4°C° 0.3 mm 3 mps 718 mmHg 87%
    15:00 +3°C° 0.5 mm 3 mps 718 mmHg 87%
    16:00 +3°C° 0.5 mm 3 mps 718 mmHg 87%
    17:00 +1°C° 0.5 mm 4 mps 718 mmHg 88%
    18:00 +1°C° 0.4 mm 4 mps 718 mmHg 88%
    19:00 +1°C° 0.4 mm 4 mps 718 mmHg 87%
    20:00 +1°C° 0.4 mm 5 mps 718 mmHg 87%
    21:00 +1°C° 0.4 mm 5 mps 718 mmHg 87%
    22:00 +1°C° 0.4 mm 5 mps 718 mmHg 86%
    23:00 +1°C° 0.4 mm 5 mps 718 mmHg 86%

    26 Octubre, Viernes

    Tiempo Temperatura Precipitaciones Viento Presión Humedad
    00:00 0°C° 0.2 mm 5 mps 718 mmHg 86%
    01:00 -1°C° 0.2 mm 6 mps 719 mmHg 85%
    02:00 -1°C° 0.2 mm 6 mps 719 mmHg 85%
    03:00 -1°C° 0.3 mm 6 mps 719 mmHg 84%
    04:00 -1°C° 0.3 mm 6 mps 720 mmHg 84%
    05:00 -1°C° 0.3 mm 6 mps 720 mmHg 84%
    06:00 0°C° 0.1 mm 5 mps 721 mmHg 84%
    07:00 0°C° 0.1 mm 5 mps 722 mmHg 84%
    08:00 0°C° 0.1 mm 5 mps 722 mmHg 84%
    09:00 0°C° 0 mm 5 mps 723 mmHg 84%
    10:00 0°C° 0 mm 5 mps 724 mmHg 84%
    11:00 +1°C° 0 mm 5 mps 724 mmHg 83%
    12:00 +1°C° 0.1 mm 5 mps 725 mmHg 83%
    13:00 +1°C° 0.1 mm 5 mps 725 mmHg 82%
    14:00 +1°C° 0.1 mm 5 mps 726 mmHg 82%
    15:00 0°C° 0.1 mm 4 mps 727 mmHg 83%
    16:00 0°C° 0.1 mm 4 mps 727 mmHg 84%
    17:00 0°C° 0.1 mm 4 mps 728 mmHg 86%
    18:00 0°C° 0 mm 4 mps 728 mmHg 86%
    19:00 0°C° 0 mm 3 mps 729 mmHg 86%
    20:00 0°C° 0 mm 3 mps 729 mmHg 86%
    21:00 0°C° 0 mm 3 mps 730 mmHg 88%
    22:00 -1°C° 0 mm 3 mps 730 mmHg 89%
    23:00 -1°C° 0 mm 3 mps 730 mmHg 90%
    Mostrar más